date,batt_volt,AirTemp_C,Solar_kW,RH,Manual_BP,StationID,WS_ms,PTemp,WS_15min_max,Prog_Sig,Solar_Raw,Bar_mbar,Solar_MJ,Max_WS_2min,Pressure_Raw,Rain_mm,WD_15min_ave,Max_AirTemp_1min,WindDir,WS_15min_med,WS_15min_ave,Elevation_Correction
2021-06-01T00:07:13Z,13.22938,14.53928,0.0004820386,97.83194,0,1156,2.6656,15.45757,5.2724,43690,0.0337427,1017.289,2.410193e-06,3.92,1015.488,0,74.5461308368,14.61,73.93426,4.2336,4.10389411765,1.80078
2021-06-01T00:22:09Z,13.22386,14.84415,0.0,98.06908,0,1156,3.2536,15.45757,5.0176,43690,0.0,1017.289,0.0,3.704,1015.488,0,77.0434059812,14.88,79.58636,3.577,3.59025882353,1.80078
2021-06-01T00:37:12Z,13.22386,15.04741,0.0,98.10295,0,1156,3.0772,15.60442,3.6064,43690,0.0,1017.289,0.0,3.606,1015.488,0,78.3946098558,15.22,77.49387,2.842,2.7809964497,1.80078
2021-06-01T00:52:13Z,13.21835,14.74253,0.0,98.1707,0,1156,1.5288,15.70157,3.8612,43690,0.0,1017.289,0.0,1.666,1015.488,0,75.9746697082,14.88,73.71779,2.4892,2.30853411765,1.80078
2021-06-01T01:07:11Z,13.21835,15.35228,0.0,98.23845,0,1156,0.6468,15.70157,1.7836,43690,0.0,1017.207,0.0,0.706,1015.406,0,111.01647272,15.35,140.3644,0.6174,0.69521666131,1.80078
2021-06-01T01:22:13Z,13.21283,15.38616,0.0,98.27232,0,1156,0.0196,15.79872,1.1368,43690,0.0,1017.207,0.0,0.784,1015.406,0,147.4660678,15.56,44.44714,0.5096,0.463482351176,1.80078
2021-06-01T01:37:14Z,13.21835,14.20052,0.0,98.10295,0,1156,2.7048,15.79872,3.9592,43690,0.0,1017.207,0.0,2.626,1015.406,0,78.6479168744,14.17,73.45322,2.2638,2.08935999706,1.80078
2021-06-01T01:52:11Z,13.22386,14.03115,0.0,98.23845,0,1156,0.0588,15.60442,4.3904,43690,0.0,1017.207,0.0,2.411,1015.406,0,77.0072171009,14.1,83.98778,3.0968,2.95796666548,1.80078
2021-06-01T02:07:16Z,13.22386,14.0989,0.0,98.3062,0,1156,4.0376,15.40786,4.3708,43690,0.0,1015.906,0.0,4.253,1014.106,0,72.4948249414,14.2,76.62802,2.8812,2.67279053136,1.80078
2021-06-01T02:22:13Z,13.22386,14.33603,0.0,98.34007,0,1156,3.7632,15.36042,4.116,43690,0.0,1015.906,0.0,3.665,1014.106,0,76.9064678428,14.44,77.20526,2.548,2.30920473136,1.80078
2021-06-01T02:37:15Z,13.22938,13.35364,0.0,98.23845,0,1156,4.9392,15.21357,5.6448,43690,0.0,1015.906,0.0,5.39,1014.106,0,75.6466431351,13.42,75.71406,4.3316,4.37149585799,1.80078
2021-06-01T02:52:16Z,13.2349,13.42139,0.0,98.34007,0,1156,3.7828,14.99669,5.2724,43690,0.0,1015.906,0.0,4.822,1014.106,0,75.5701001991,13.52,75.01657,4.214,4.14174674556,1.80078
2021-06-01T03:07:12Z,13.23513,13.35404,0.0,98.37469,0,1156,3.2928,14.82724,5.0568,43690,0.0,1014.704,0.0,3.94,1012.903,0,76.3230462123,13.49,75.35385,3.6456,3.65621666667,1.80078
2021-06-01T03:22:12Z,13.23596,13.59441,0.0,98.48227,0,1156,4.0964,14.75494,4.7432,43690,0.0,1014.704,0.0,4.586,1012.903,0,76.759160209,13.63,75.93569,3.724,3.67169467456,1.80078
2021-06-01T03:37:13Z,13.23551,13.52499,0.0,98.4792,0,1156,2.1952,14.7075,4.8412,43690,0.0,1014.704,0.0,2.705,1012.903,0,74.6958505175,13.66,64.62872,3.0772,3.0165443787,1.80078
2021-06-01T03:52:13Z,13.23615,13.79627,0.0,98.58132,0,1156,2.9792,14.66005,5.3704,43690,0.0,1014.704,0.0,4.39,1012.903,0,75.1988998112,13.83,76.70337,3.969,3.88278333333,1.80078
2021-06-01T04:07:17Z,13.23543,13.96615,0.0,98.58223,0,1156,3.7828,14.68264,3.9396,43690,0.0,1013.658,0.0,3.254,1011.858,0,74.3188454395,14.1,77.2573,2.254,2.24281646941,1.80078
2021-06-01T04:22:17Z,13.24088,13.69487,0.0,98.61563,0,1156,4.1944,14.68264,5.9192,43690,0.0,1013.658,0.0,4.449,1011.858,0,75.6944956021,13.86,75.35677,4.4884,4.5020852071,1.80078
2021-06-01T04:37:15Z,13.23555,13.83206,0.0,98.68647,0,1156,3.92,14.6352,5.5664,43690,0.0,1013.658,0.0,4.684,1011.858,0,75.6942917987,13.93,72.47273,4.3904,4.3234816568,1.80078
2021-06-01T04:52:15Z,13.24185,13.76079,0.0,98.78164,0,1156,2.3912,14.6352,4.3904,43690,0.0,1013.658,0.0,3.45,1011.858,0,74.8897877884,13.76,73.38196,3.5868,3.52718816568,1.80078
2021-06-01T05:07:18Z,13.24607,13.18612,0.0,98.68226,0,1156,4.6452,14.56291,4.9392,43690,0.0,1013.075,0.0,4.939,1011.274,0,76.493410305,13.22,76.87122,3.9396,3.94398117647,1.80078
2021-06-01T05:22:16Z,13.24603,12.77922,0.0,98.64769,0,1156,3.7044,14.39572,5.4096,43690,0.0,1013.075,0.0,4.351,1011.274,0,76.1540649004,12.88,76.7023,4.1356,4.1452260355,1.80078
2021-06-01T05:37:19Z,13.2468,12.95054,0.0,98.7868,0,1156,2.94,14.22854,4.4492,43690,0.0,1013.075,0.0,4.234,1011.274,0,76.040783468,12.98,76.53672,3.6456,3.53572470588,1.80078
2021-06-01T05:52:16Z,13.25253,12.95317,0.0,98.79171,0,1156,2.646,14.1585,4.4688,43690,0.0,1013.075,0.0,3.371,1011.274,0,76.0637369742,13.05,71.05617,3.6456,3.4592260355,1.80078
2021-06-01T06:07:15Z,13.25344,11.26269,0.0,98.42571,0,1156,5.5076,14.06135,8.33,43690,0.0,1012.886,0.0,6.292,1011.085,0,113.828738399,11.36,125.0905,5.9584,5.14842120473,1.80078
2021-06-01T06:22:18Z,13.27239,10.72738,0.0,98.40502,0,1156,4.1944,13.65921,6.37,43690,0.0,1012.886,0.0,4.841,1011.085,0,132.024440744,10.76,131.5551,4.802,4.56022823529,1.80078
2021-06-01T06:37:20Z,13.27802,10.69466,0.0,98.54282,0,1156,3.5672,13.23446,5.8408,43690,0.0,1012.886,0.0,3.822,1011.085,0,132.799684694,10.86,127.9491,4.2042,4.14493882353,1.80078
2021-06-01T06:52:17Z,13.28354,10.66079,0.0,98.54286,0,1156,3.3124,12.92947,5.0568,43690,0.0,1012.886,0.0,4.959,1011.085,0,142.705287406,10.76,142.6977,3.1752,3.15803550296,1.80078
2021-06-01T07:07:18Z,13.29457,10.01694,0.0,98.40732,0,1156,4.4688,12.62673,5.096,43690,0.0,1012.584,0.0,4.88,1010.783,0,137.35658555,10.05,137.0437,3.1164,3.19987294118,1.80078
2021-06-01T07:22:19Z,13.29529,10.19011,0.0,98.48241,0,1156,8.1536,12.34884,8.8004,43690,0.0,1012.584,0.0,8.74,1010.783,0,136.367694919,10.29,136.693,7.2813995,7.00100450588,1.80078
2021-06-01T07:37:20Z,13.30781,10.22854,0.0,98.5591,0,1156,6.8012,12.14099,9.8784,43690,0.0,1012.584,0.0,8.66,1010.783,0,139.246482629,10.3,139.8577,8.0948,7.98065861176,1.80078
2021-06-01T07:52:22Z,13.30786,10.0593,0.0,98.52565,0,1156,5.488,11.97832,9.016,43690,0.0,1012.584,0.0,7.703001,1010.783,0,144.613200527,10.19,152.9971,6.6346,6.63609870588,1.80078
2021-06-01T08:07:18Z,13.31338,9.855946,0.0,98.52565,0,1156,7.5852,11.79306,9.290401,43690,0.0,1014.053,0.0,8.349999,1012.252,0,142.262492448,10.03,132.9761,7.0364,6.90279515976,1.80078
2021-06-01T08:22:20Z,13.31925,10.06233,0.0004822618,98.5655,0,1156,2.8028,11.65525,7.84,43690,0.03375833,1014.053,2.411309e-06,3.842,1012.252,0,138.959871297,10.2,139.2651,5.8702,5.49514819412,1.80078
2021-06-01T08:37:22Z,13.32054,10.30201,0.001929187,98.57025,0,1156,3.0576,11.58748,6.0368,43690,0.1350431,1014.053,9.645933e-06,4.92,1012.252,0,142.942419415,10.3,137.5631,4.2826,4.27914117647,1.80078
2021-06-01T08:52:18Z,13.31941,9.759766,0.005304889,98.53654,0,1156,4.8216,11.56488,5.2136,43690,0.3713422,1014.053,2.652444e-05,5.214,1012.252,0,133.766643759,9.8,138.141,4.018,3.94713846154,1.80078
2021-06-01T09:07:21Z,13.32058,10.10024,0.005787711,98.6073,0,1156,6.5268,11.49485,6.9384,43690,0.4051398,1013.628,2.893855e-05,6.684,1011.828,0,140.390416755,10.2,137.6879,5.586,5.60790587059,1.80078
2021-06-01T09:22:24Z,13.32107,9.829369,0.01543499,98.57402,0,1156,6.664,11.47225,7.84,43690,1.080449,1013.628,7.717494e-05,7.644001,1011.828,0,142.346991268,10.07,143.7055,5.586,5.66866585294,1.80078
2021-06-01T09:37:21Z,13.32107,9.626881,0.01832846,98.5758,0,1156,4.3708,11.40448,7.6244,43690,1.282992,1013.628,9.164228e-05,5.704,1011.828,0,141.360572375,9.8,149.2196,6.1544,5.98113130769,1.80078
2021-06-01T09:52:19Z,13.32662,9.660961,0.02797658,98.57617,0,1156,7.35,11.31184,8.859199,43690,1.95836,1013.628,0.0001398829,8.86,1011.828,0,143.57663046,9.76,129.6771,5.1156,5.36924018343,1.80078
2021-06-01T10:07:23Z,13.32668,9.491524,0.03376548,98.57627,0,1156,8.3496,11.24407,10.4468,43690,2.363584,1014.302,0.0001688274,9.979999,1012.502,0,134.028838355,9.559999,140.3634,8.8396,8.7972868,1.80078
2021-06-01T10:22:20Z,13.3322,9.254238,0.04920114,98.57627,0,1156,8.0164,11.17629,10.1332,43690,3.44408,1014.302,0.0002460057,8.679999,1012.502,0,136.567522846,9.36,131.6027,7.9772,7.88998554438,1.80078
2021-06-01T10:37:23Z,13.3322,9.288135,0.07910773,98.61017,0,1156,5.4096,11.10625,9.290401,43690,5.53754,1014.302,0.0003955386,7.644001,1012.502,0,136.580952509,9.36,142.9627,7.1638,7.11214807059,1.80078
2021-06-01T10:52:25Z,13.32668,9.220341,0.1128732,98.57627,0,1156,5.5076,11.15144,7.271599,43690,7.901125,1014.302,0.000564366,6.899,1012.502,0,137.405627283,9.36,146.4044,6.0564,6.00209645294,1.80078
2021-06-01T11:07:23Z,13.3322,9.491524,0.1070849,98.57627,0,1156,5.0764,11.26666,6.958,43690,7.495939,1014.302,0.0005354242,5.625,1012.502,0,136.569284103,9.559999,131.7471,5.3508,5.38362129586,1.80078
2021-06-01T11:22:22Z,13.32116,9.389831,0.1389209,98.57627,0,1156,6.8208,11.44966,7.252,43690,9.724462,1014.302,0.0006946044,6.958,1012.502,0,132.071018887,9.46,126.1875,5.4684,5.44578457396,1.80078
2021-06-01T11:37:25Z,13.32098,9.320835,0.1012863,98.64167,0,1156,6.879599,11.54229,10.29,43690,7.09004,1014.302,0.0005064314,10.29,1012.502,0,129.851810808,9.32,134.656,7.3402,7.51902098235,1.80078
2021-06-01T11:52:24Z,13.32079,9.320782,0.1466231,98.70936,0,1156,8.741599,11.51744,9.898,43690,10.26362,1014.302,0.0007331153,9.349999,1012.502,0,138.527702837,9.46,139.3009,8.055599,8.04852515976,1.80078
2021-06-01T12:07:23Z,13.3207,9.49107,0.1191319,98.67706,0,1156,4.9196,11.54229,9.7804,43690,8.33923,1014.951,0.0005956593,6.39,1013.15,0,139.507333082,9.76,141.5173,6.1348,6.34808039053,1.80078
2021-06-01T12:22:27Z,13.32115,9.557232,0.07765388,98.7077,0,1156,5.7428,11.61007,7.6048,43690,5.435772,1014.951,0.0003882694,7.605001,1013.15,0,133.827400331,9.66,132.6561,5.1352,5.19872705294,1.80078
2021-06-01T12:37:25Z,13.32015,9.388374,0.1225037,98.67506,0,1156,8.3888,11.61007,9.290401,43690,8.575255,1014.951,0.0006125182,7.781,1013.15,0,137.776760554,9.559999,138.7949,6.3504,6.40537269822,1.80078
2021-06-01T12:52:23Z,13.32112,9.557289,0.1196008,98.70782,0,1156,5.88,11.65525,8.3888,43690,8.372057,1014.951,0.0005980041,7.585001,1013.15,0,140.669920058,9.519999,139.3228,6.1152,6.08620584024,1.80078
2021-06-01T13:07:23Z,13.31967,9.658325,0.1441957,98.74041,0,1156,4.704,11.72529,7.2324,43690,10.0937,1015.325,0.0007209782,6.429,1013.524,0,137.541607333,9.66,135.0371,5.586,5.50574436686,1.80078
2021-06-01T13:22:24Z,13.3137,9.791088,0.0771589,98.73481,0,1156,4.8804,11.8631,6.664,43690,5.401123,1015.325,0.0003857945,6.174,1013.524,0,137.145710745,9.719999,134.9332,5.0372,5.0486816568,1.80078
2021-06-01T13:37:29Z,13.31385,9.448082,0.08004639,98.69282,0,1156,5.096,11.90828,6.1152,43690,5.603248,1015.325,0.000400232,6.115,1013.524,0,134.363931697,9.519999,131.6736,4.9784,4.95649411765,1.80078
2021-06-01T13:52:28Z,13.31863,9.517151,0.1128382,98.72927,0,1156,6.272,11.84051,6.879599,43690,7.898675,1015.325,0.0005641911,6.978,1013.524,0,134.949534697,9.689999,135.1422,5.7428,5.69490174556,1.80078
2021-06-01T14:07:27Z,13.31938,9.55135,0.1610627,98.69598,0,1156,5.7036,11.84051,7.467599,43690,11.27439,1015.83,0.0008053134,7.330001,1014.03,0,136.919277839,9.79,136.8756,5.7428,5.74593133136,1.80078
2021-06-01T14:22:27Z,13.30803,9.617836,0.1779417,98.7273,0,1156,5.39,11.95573,6.2328,43690,12.45592,1015.83,0.0008897083,6.233,1014.03,0,141.63525436,9.79,137.8827,5.1548,5.07674792899,1.80078
2021-06-01T14:37:25Z,13.30235,9.855881,0.1842012,98.72887,0,1156,2.9792,12.11614,5.5076,43690,12.89409,1015.83,0.0009210062,3.998,1014.03,0,139.166850874,9.889999,142.457,3.92,3.9887739645,1.80078
2021-06-01T14:52:29Z,13.29683,9.923733,0.1678061,98.79679,0,1156,2.8224,12.39402,3.92,43690,11.74643,1015.83,0.0008390306,3.92,1014.03,0,136.559224034,10.06,157.8339,2.5186,2.44746352882,1.80078
2021-06-01T15:07:27Z,13.29641,9.850948,0.1774502,98.78689,0,1156,2.744,12.58154,4.2728,43690,12.42151,1015.752,0.0008872508,3.273,1013.952,0,145.859051985,10.09,165.253,3.0968,2.98151952663,1.80078
2021-06-01T15:22:30Z,13.29498,10.1533,0.1514113,98.81555,0,1156,4.0376,12.74421,4.802,43690,10.59879,1015.752,0.0007570563,4.802,1013.952,0,144.654908237,10.29,125.0159,2.8812,3.00133647059,1.80078
2021-06-01T15:37:28Z,13.28907,10.25418,0.2160263,98.74625,0,1156,5.8408,12.90687,7.0756,43690,15.12184,1015.752,0.001080131,7.076,1013.952,0,129.256897949,10.36,134.0364,5.2136,5.15120471598,1.80078
2021-06-01T15:52:27Z,13.28906,10.28806,0.2266347,98.74622,0,1156,8.408401,13.02436,10.486,43690,15.86443,1015.752,0.001133174,10.09,1013.952,0,130.477527808,10.36,131.3416,7.369599,7.30105781657,1.80078
2021-06-01T16:07:27Z,13.29458,9.881416,0.1330876,98.57679,0,1156,6.1152,13.00177,11.4072,43690,9.316134,1016.081,0.0006654381,10.04,1014.28,0,132.477080066,9.92,133.6273,9.1924,9.05937495858,1.80078
2021-06-01T16:22:27Z,13.29458,10.4236,0.2835345,98.5429,0,1156,8.212401,12.90687,10.1724,43690,19.84741,1016.081,0.001417672,9.33,1014.28,0,133.214274068,10.56,129.0319,7.8204,7.81309327811,1.80078
2021-06-01T16:37:27Z,13.28354,10.45749,0.4561626,98.33958,0,1156,8.1732,13.0944,10.2312,43690,31.93139,1016.081,0.002280813,8.45,1014.28,0,134.934939353,10.76,135.6964,8.0752,8.12077842604,1.80078
2021-06-01T16:52:28Z,13.2725,10.76247,0.6287908,98.13626,0,1156,10.094,13.58917,11.1916,43690,44.01536,1016.081,0.003143954,11.19,1014.28,0,133.443647247,11.07,132.2078,8.5064,8.53237852663,1.80078
2021-06-01T17:07:32Z,13.25043,11.67742,1.338388,97.83128,0,1156,7.9772,14.22854,11.4268,43690,93.68716,1015.837,0.00669194,11.29,1014.036,0,129.612456755,11.58,121.9584,9.2806005,9.24278333529,1.80078
2021-06-01T17:22:31Z,13.22457,11.39229,0.3499742,95.36539,0,1156,10.9172,15.06898,11.074,43690,24.4982,1015.837,0.001749871,10.86,1014.036,0,127.764143395,11.73,130.2234,9.133599,9.03571573964,1.80078
2021-06-01T17:37:29Z,13.21837,12.0665,0.7809036,90.58283,0,1156,8.408401,15.60442,11.0348,43690,54.66325,1015.837,0.003904518,11.03,1014.036,0,126.985580717,12.24,133.486,9.113999,8.97459623077,1.80078
2021-06-01T17:52:33Z,13.20732,12.13417,0.4564907,87.39842,0,1156,8.3496,16.09242,11.172,43690,31.95435,1015.837,0.002282454,9.979999,1014.036,0,129.183019821,12.24,129.0123,9.016,9.10385384118,1.80078
2021-06-01T18:07:31Z,13.20732,11.79541,0.6613572,86.7209,0,1156,7.8204,16.29123,10.3096,43690,46.295,1016.557,0.003306786,10.05,1014.756,0,132.347734624,11.93,135.6264,8.82,8.7091263787,1.80078
2021-06-01T18:22:31Z,13.20732,12.33742,0.4989101,86.07727,0,1156,7.9576,16.29123,9.702,43690,34.92371,1016.557,0.002494551,8.58,1014.756,0,134.366984644,12.3,129.6135,7.4872,7.45785781657,1.80078
2021-06-01T18:37:29Z,13.20181,12.23579,0.7298067,84.14638,0,1156,6.389599,16.38838,9.2512,43690,51.08647,1016.557,0.003649034,8.309999,1014.756,0,134.72105758,12.37,130.1427,7.4284,7.40775598225,1.80078
2021-06-01T18:52:34Z,13.20181,12.20178,0.7057047,84.01066,0,1156,7.1344,16.53749,9.1728,43690,49.39933,1016.557,0.003528524,9.17,1014.756,0,135.840288995,12.54,139.0414,7.5852,7.49872918235,1.80078
2021-06-01T19:07:33Z,13.20106,12.13278,0.5755418,82.78916,0,1156,8.5652,16.6369,8.623999,43690,40.28793,1016.793,0.002877709,8.62,1014.993,0,137.870480012,12.57,132.7607,7.154,7.08383411243,1.80078
2021-06-01T19:22:32Z,13.20035,12.40056,0.5437392,82.54698,0,1156,7.5068,16.71145,9.4864,43690,38.06175,1016.793,0.002718696,7.213,1014.993,0,135.592895253,12.43,134.2918,7.2324,7.27345540828,1.80078
2021-06-01T19:37:32Z,13.20043,12.46989,0.6449676,82.82046,0,1156,6.0564,16.6369,8.134,43690,45.14773,1016.793,0.003224838,7.37,1014.993,0,138.005959898,12.27,156.0371,6.6836,6.65634546746,1.80078
2021-06-01T19:52:31Z,13.20068,12.19744,0.5514522,81.93744,0,1156,5.3312,16.61205,7.252,43690,38.60165,1016.793,0.002757261,6.958,1014.993,0,137.335429117,12.27,138.8133,5.8604,5.72285202959,1.80078
2021-06-01T20:07:31Z,13.20171,13.28503,0.6232759,79.23311,0,1156,4.41,16.58719,6.9188,43690,43.62931,1017.109,0.003116379,4.978,1015.308,0,136.747070825,13.42,135.0228,5.096,5.03000946746,1.80078
2021-06-01T20:22:32Z,13.18401,14.97399,0.6174706,72.41798,0,1156,3.3516,17.13619,4.2728,43690,43.22294,1017.109,0.003087353,3.979,1015.308,0,130.936542692,15.01,134.9149,3.2144,3.15699171598,1.80078
2021-06-01T20:37:33Z,13.17585,13.70949,0.3923246,77.48254,0,1156,4.9,17.53834,5.5076,43690,27.46272,1017.109,0.001961623,5.508,1015.308,0,135.246275064,13.81,142.2441,4.2728,4.10115502959,1.80078
2021-06-01T20:52:32Z,13.1808,14.08065,0.4829217,76.29538,0,1156,4.116,17.51348,5.6448,43690,33.80452,1017.109,0.002414609,4.861,1015.308,0,134.39261815,14.05,132.2626,4.3316,4.33647100592,1.80078
2021-06-01T21:07:32Z,13.18631,13.57266,0.4684627,76.90488,0,1156,4.312,17.43667,5.684,43690,32.79239,1016.464,0.002342314,4.861,1014.663,0,137.690033354,13.64,142.0241,4.1356,4.09303668639,1.80078
2021-06-01T21:22:33Z,13.18695,13.77817,0.3663282,76.80661,0,1156,4.9,17.08649,6.1152,43690,25.64297,1016.464,0.001831641,5.939,1014.663,0,143.935529051,13.78,139.9624,4.8412,4.75839289941,1.80078
2021-06-01T21:37:32Z,13.19924,12.73414,0.1561724,79.62618,0,1156,3.4888,16.7363,5.6644,43690,10.93207,1016.464,0.0007808618,4.155,1014.663,0,143.339338013,12.94,145.0998,3.9592,3.91976804734,1.80078
2021-06-01T21:52:33Z,13.21252,13.59006,0.06748531,75.94748,0,1156,3.724,16.38838,5.978,43690,4.723972,1016.464,0.0003374266,5.978,1014.663,0,142.347359832,13.62,162.5378,3.5868,3.67540591716,1.80078
2021-06-01T22:07:33Z,13.20731,13.55689,0.1672674,75.16935,0,1156,4.214,16.33868,6.0172,43690,11.70872,1016.881,0.0008363369,6.017,1015.08,0,137.867158768,13.83,127.7855,3.9004,3.91269349112,1.80078
2021-06-01T22:22:33Z,13.21835,13.01489,0.162929,79.60702,0,1156,1.6856,15.99527,5.2332,43690,11.40503,1016.881,0.0008146451,2.352,1015.08,0,139.077934116,12.95,153.5687,2.7048,2.73217041302,1.80078
2021-06-01T22:37:34Z,13.22386,13.18427,0.1764261,78.59076,0,1156,2.8812,15.55471,4.41,43690,12.34983,1016.881,0.0008821305,4.096,1015.08,0,137.543757261,13.32,132.3794,2.4696,2.55263905325,1.80078
2021-06-01T22:52:35Z,13.22938,13.15039,0.1359349,79.03114,0,1156,2.3128,15.26327,3.9592,43690,9.515441,1016.881,0.0006796743,3.959,1015.08,0,143.550494972,13.12,142.7696,2.3324,2.34736094675,1.80078
2021-06-01T23:07:36Z,13.2349,12.60838,0.09351549,79.40377,0,1156,2.0188,14.99669,3.4692,43690,6.546084,1017.207,0.0004675774,2.587,1015.406,0,133.663353078,12.68,126.2462,2.2148,2.20157869822,1.80078
2021-06-01T23:22:38Z,13.24661,11.59387,0.0212097,83.8104,0,1156,3.0184,14.56291,3.5084,43690,1.484679,1017.207,0.0001060485,3.254,1015.406,0,132.781015382,11.73,136.617,2.2932,2.3227739645,1.80078
2021-06-01T23:37:37Z,13.2698,10.85807,0.01253512,87.14654,0,1156,3.1556,13.77668,3.528,43690,0.8774584,1017.207,6.26756e-05,3.214,1015.406,0,146.705472223,10.96,145.9285,2.5088,2.45904615385,1.80078
2021-06-01T23:52:39Z,13.2945,11.37226,0.005304057,85.9367,0,1156,3.4496,12.97691,4.3708,43690,0.371284,1017.207,2.652028e-05,4.057,1015.406,0,152.633104891,11.37,139.0162,2.7832,2.80407573964,1.80078
2021-06-02T00:07:37Z,13.31113,10.96577,0.001446603,86.6147,0,1156,3.332,12.32624,3.8808,43690,0.1012622,1017.219,7.233015e-06,3.254,1015.418,0,146.154845813,11.03,149.7231,2.548,2.4881499994,1.80078
2021-06-02T00:22:39Z,13.3243,10.90628,0.0004822013,85.84928,0,1156,2.2932,11.79306,4.0964,43690,0.03375409,1017.219,2.411007e-06,3.489,1015.418,0,142.264608402,10.97,124.8417,2.4304,2.45266745503,1.80078
2021-06-02T00:37:40Z,13.33658,10.64125,0.0,86.53755,0,1156,2.4304,11.31184,4.7628,43690,0.0,1017.219,0.0,3.842,1015.418,0,135.927916658,10.67,137.8767,2.6656,2.80859881657,1.80078
2021-06-02T00:52:37Z,13.34322,10.33892,0.0,87.83039,0,1156,1.5876,10.9707,3.136,43690,0.0,1017.219,0.0,2.176,1015.418,0,133.660887383,10.41,130.7842,2.0286,2.05578333333,1.80078
2021-06-02T01:07:39Z,13.34325,11.52543,0.0,82.37288,0,1156,3.6848,10.83288,3.9984,43690,0.0,1018.614,0.0,3.94,1016.814,0,156.213723312,11.56,142.1444,1.9796,2.15853647059,1.80078
2021-06-02T01:22:37Z,13.32668,11.72881,0.0,82.1695,0,1156,4.2728,11.06107,5.3312,43690,0.0,1018.614,0.0,4.939,1016.814,0,142.483077648,11.83,140.1709,3.9494,3.91813333333,1.80078
2021-06-02T01:37:40Z,13.32116,11.59322,0.0,82.61017,0,1156,4.41,11.31184,5.7232,43690,0.0,1018.614,0.0,5.037,1016.814,0,140.279194295,11.73,139.4247,4.5472,4.49756213018,1.80078
2021-06-02T01:52:36Z,13.32116,11.38983,0.0,82.57627,0,1156,1.5876,11.49485,4.7432,43690,0.0,1018.614,0.0,3.254,1016.814,0,146.568950112,11.42,150.1109,2.6558,2.63526666607,1.80078
2021-06-02T02:07:39Z,13.31463,11.86289,0.0,79.89598,0,1156,2.8616,11.63266,3.9396,43690,0.0,1018.533,0.0,3.391,1016.732,0,159.502287586,11.93,163.4878,2.2932,2.27510769231,1.80078
2021-06-02T02:22:40Z,13.30795,12.19756,0.0,78.80476,0,1156,2.9792,11.79306,5.1548,43690,0.0,1018.533,0.0,2.724,1016.732,0,156.617562156,12.33,154.113,2.7244,2.74260828402,1.80078
2021-06-02T02:37:38Z,13.3079,12.70313,0.0,77.27533,0,1156,3.528,12.00091,5.7428,43690,0.0,1018.533,0.0,5.233,1016.732,0,149.951079474,12.74,153.3346,3.2536,3.32353372781,1.80078
2021-06-02T02:52:37Z,13.29683,12.70287,0.0,77.64778,0,1156,4.3904,12.23362,7.5852,43690,0.0,1018.533,0.0,5.958,1016.732,0,143.522446773,12.87,130.7862,4.7628,4.83029821893,1.80078
2021-06-02T03:07:38Z,13.29638,13.00597,0.0,77.37381,0,1156,4.1356,12.44147,7.467599,43690,0.0,1018.608,0.0,6.84,1016.807,0,143.689760461,13.11,146.2297,5.0764,5.06352660355,1.80078
2021-06-02T03:22:43Z,13.28938,12.76499,0.0,78.28331,0,1156,4.312,12.58154,6.7032,43690,0.0,1018.608,0.0,5.566,1016.807,0,141.655850735,12.83,139.6266,4.459,4.54915999412,1.80078
2021-06-02T03:37:41Z,13.28918,12.82965,0.0,78.0076,0,1156,5.6056,12.65158,7.1932,43690,0.0,1018.608,0.0,6.213,1016.807,0,141.139443372,12.86,137.1883,5.0176,5.09182484615,1.80078
2021-06-02T03:52:39Z,13.28906,12.45684,0.0,79.53244,0,1156,2.8616,12.65158,6.076,43690,0.0,1018.608,0.0,4.43,1016.807,0,142.160488634,12.52,160.887,3.8808,3.90724260355,1.80078
2021-06-02T04:07:43Z,13.29458,11.91465,0.0,80.61682,0,1156,4.9784,12.48665,5.7232,43690,0.0,1018.198,0.0,4.684,1016.397,0,144.87605584,12.08,147.3895,4.018,4.07611397059,1.80078
2021-06-02T04:22:41Z,13.30737,11.10772,0.0,84.32095,0,1156,5.6252,12.09355,7.114799,43690,0.0,1018.198,0.0,5.586,1016.397,0,141.805642294,11.04,145.1459,4.7628,4.83168993491,1.80078
2021-06-02T04:37:43Z,13.31871,11.21229,0.0,83.10558,0,1156,4.6844,11.70269,7.056,43690,0.0,1018.198,0.0,5.821,1016.397,0,143.379704677,11.42,142.5793,5.2528,5.22063292353,1.80078
2021-06-02T04:52:41Z,13.33084,10.9464,0.0,84.36833,0,1156,3.2144,11.35703,5.4292,43690,0.0,1018.198,0.0,4.273,1016.397,0,145.11932584,11.01,147.8646,3.528,3.57334674556,1.80078
2021-06-02T05:07:43Z,13.33767,10.44054,0.0,85.89807,0,1156,4.1944,11.03847,4.2532,43690,0.0,1017.873,0.0,3.998,1016.072,0,145.673840357,10.68,132.8298,2.9596,3.01574823529,1.80078
2021-06-02T05:22:40Z,13.34876,10.16949,0.0,87.28814,0,1156,3.4888,10.65214,4.4884,43690,0.0,1017.873,0.0,4.214,1016.072,0,141.102589659,10.27,142.2407,3.4692,3.43069585799,1.80078
2021-06-02T05:37:42Z,13.35429,10.0678,0.0,88.0,0,1156,3.1556,10.26807,4.8412,43690,0.0,1017.873,0.0,4.018,1016.072,0,139.643781979,10.1,149.5573,3.4888,3.47484941176,1.80078
2021-06-02T05:52:44Z,13.36533,9.76271,0.0,88.13559,0,1156,4.4296,9.974369,5.3704,43690,0.0,1017.873,0.0,5.116,1016.072,0,137.381824465,9.929999,132.2044,3.8318,3.83940941176,1.80078
2021-06-02T06:07:45Z,13.37085,9.525425,0.0,89.55932,0,1156,2.548,9.705517,6.1348,43690,0.0,1018.126,0.0,4.116,1016.325,0,140.874788098,9.63,152.662,3.969,3.99355764706,1.80078
2021-06-02T06:22:41Z,13.37637,9.322033,0.0,90.1695,0,1156,2.8812,9.459255,4.9392,43690,0.0,1018.126,0.0,3.881,1016.325,0,145.100294804,9.53,145.201,3.7828,3.79613727811,1.80078
2021-06-02T06:37:43Z,13.37669,9.460323,0.0,90.71682,0,1156,4.8216,9.258182,5.4684,43690,0.0,1018.126,0.0,4.508,1016.325,0,147.459036464,9.36,136.6644,3.43,3.50344235294,1.80078
2021-06-02T06:52:44Z,13.38399,9.468369,0.0,89.95174,0,1156,3.5868,9.122631,5.3312,43690,0.0,1018.126,0.0,4.861,1016.325,0,145.421519155,9.71,146.9899,4.508,4.35108470588,1.80078
2021-06-02T07:07:45Z,13.38588,9.91412,0.0,88.60434,0,1156,4.9,9.05711,5.2332,43690,0.0,1018.101,0.0,5.076,1016.3,0,148.811711074,9.979999,146.4508,4.0572,4.08625411765,1.80078